Track IRIDIUM 129 now! 10-day predictions IRIDIUM 129 is classified as:
1 42958U 17061D 26258.71794857 .00000074 00000-0 19479-4 0 9999 2 42958 86.4027 347.4249 0002355 98.9693 261.1769 14.34217534467776